Meteo Giornale » Osservazioni meteo Brasile » Macae
ore: 14:00 - Osservazioni Meteo Macae
Lat. 22° 21' S Lon. 41° 46' W Alt. 2 metri s.l.m.
23 °C
Poco Nuvoloso
Temp. 24 Ore
22 °C
28 °C
Sud-Est
11.1 Km/h
Dew point 21 °C
Umidità 88 %
Visibilità 10 Km
Il sole sorge alle ore 05:57
Il sole tramonta alle ore 17:37
| Data e Ora | Cielo e Fenomeni | T °C | DP °C | Um. % | Pres. hPa | Vis. km | Vento km/h | |
|---|---|---|---|---|---|---|---|---|
| Oggi h: 14:00 | Poco Nuvoloso | 23 | 21 | 88 | 1013 | 10 | SE 11.1 | |
| Oggi h: 13:00 | Poco Nuvoloso | 24 | 21 | 83 | 1014 | 10 | E/SE 13 | |
| Oggi h: 12:00 | Poco Nuvoloso | 26 | 22 | 78 | 1014 | 10 | E/NE 9.3 | |
| Oggi h: 11:00 | Poco Nuvoloso | 26 | 22 | 78 | 1015 | 10 | NE 14.8 | |
| Oggi h: 10:00 | Coperto | 24 | 22 | 88 | 1015 | 10 | E 7.4 | |
| Oggi h: 09:00 | Coperto | 23 | 21 | 88 | 1016 | 10 | N/NO 11.1 | |
| Oggi h: 08:00 | Pioggia | 22 | 21 | 94 | 1016 | 10 | N/NO 9.3 | |
| Oggi h: 07:00 | Pioggia | 22 | 11 | 49 | 1017 | 10 | N 3.7 | |
| Oggi h: 06:00 | Coperto | 22 | 21 | 94 | 1017 | 10 | O/SO 9.3 | |
| Oggi h: 05:00 | Molto Nuvoloso | 22 | 21 | 94 | 1015 | 10 | O 7.4 | |
| Oggi h: 04:00 | Coperto | 23 | 21 | 88 | 1015 | 10 | S/SO 18.5 | |
| Oggi h: 03:00 | Pioggia | 23 | 22 | 94 | 1016 | 8 | O/SO 13 | |
| Oggi h: 02:00 | Coperto | 23 | 22 | 94 | 1015 | 10 | SO 16.7 | |
| Oggi h: 01:00 | Coperto | 23 | 21 | 88 | 1016 | 10 | SO 18.5 | |
| Oggi h: 00:00 | Coperto | 24 | 21 | 83 | 1016 | 10 | SO 20.3 | |
| Ieri h: 23:00 | Molto Nuvoloso | 23 | 22 | 94 | 1016 | 10 | S/SO 29.6 | |
| Ieri h: 22:00 | Molto Nuvoloso | 24 | 22 | 88 | 1015 | 10 | S/SO 29.6 | |
| Ieri h: 21:00 | Sereno | 25 | 21 | 78 | 1012 | 10 | NE 18.5 | |
| Ieri h: 20:00 | Sereno | 25 | 22 | 83 | 1012 | 10 | N/NE 16.7 | |
| Ieri h: 19:00 | Sereno | 26 | 22 | 78 | 1012 | 10 | N/NE 14.8 | |
| Ieri h: 18:00 | Sereno | 27 | 22 | 74 | 1011 | 10 | N/NE 16.7 | |
| Ieri h: 17:00 | Sereno | 28 | 22 | 69 | 1011 | 10 | E/NE 13 | |
| Ieri h: 16:00 | Sereno | 27 | 22 | 74 | 1012 | 10 | E/NE 16.7 | |
| Ieri h: 15:00 | Sereno | 28 | 22 | 69 | 1012 | 8 | E/NE 13 | |



